Kelso-Longview, WA
on Sunday, November 11, 2012

Sunday
Previous Day Next Day
Daily Summary
 ActualAverage (KSPB)Record (KSPB)
Temperature
Mean Temperature °F °F  
Max Temperature 48°F °F 61°F (2013)
Min Temperature 33°F °F 24°F (2014)
Degree Days
Heating Degree Days 24    
Month to date heating degree days  
Since 1 July heating degree days  
Cooling Degree Days 0    
Month to date cooling degree days  
Year to date cooling degree days  
Moisture
Dew Point 38°F   
Average Humidity 79    
Maximum Humidity 87    
Minimum Humidity 71    
Precipitation
Precipitation 0.49 in in 0.78 in (2008)
Month to date precipitation  
Year to date precipitation  
Wind
Wind Speed 7 mph   
Max Wind Speed 20 mph   
Max Gust Speed 32 mph   
Visibility 10 miles   
Events     

Key: T is trace of precipitation, MM is missing value
Source: NWS Daily Summary
Time(PST)TemperatureDew PointHumidity Pressure Visibility Wind DirectionWind SpeedGust SpeedPrecipitationEvents Conditions
12:15 AM 35.6°F 32.0°F 87% 30.23 in 10.0 miles Calm Calm - N/A   Mostly Cloudy
12:35 AM 33.8°F 30.2°F 87% 30.24 in 10.0 miles Calm Calm - N/A   Scattered Clouds
12:55 AM 35.6°F 30.2°F 81% 30.24 in 10.0 miles Calm Calm - N/A   Scattered Clouds
1:15 AM 35.6°F 30.2°F 81% 30.24 in 10.0 miles Calm Calm - N/A   Mostly Cloudy
1:35 AM 33.8°F 30.2°F 87% 30.24 in 10.0 miles Calm Calm - N/A   Overcast
1:55 AM 35.6°F 32.0°F 87% 30.24 in 10.0 miles Calm Calm - N/A   Overcast
2:15 AM 35.6°F 32.0°F 87% 30.24 in 10.0 miles Calm Calm - N/A   Overcast
2:35 AM 37.4°F 33.8°F 87% 30.24 in 10.0 miles SSE 3.5 mph - N/A   Overcast
2:55 AM 39.2°F 33.8°F 81% 30.24 in 10.0 miles SE 4.6 mph - N/A   Overcast
3:35 AM 41.0°F 33.8°F 76% 30.22 in 10.0 miles SSE 6.9 mph - N/A   Overcast
3:55 AM 41.0°F 35.6°F 81% 30.23 in 10.0 miles SE 5.8 mph - N/A   Overcast
4:15 AM 41.0°F 35.6°F 81% 30.23 in 10.0 miles SE 6.9 mph - N/A   Overcast
4:35 AM 41.0°F 35.6°F 81% 30.23 in 10.0 miles SSE 4.6 mph - N/A   Overcast
4:55 AM 41.0°F 35.6°F 81% 30.23 in 10.0 miles SE 5.8 mph - N/A   Overcast
5:35 AM 41.0°F 35.6°F 81% 30.22 in 10.0 miles SE 8.1 mph - N/A   Overcast
6:15 AM 42.8°F 35.6°F 76% 30.22 in 10.0 miles SE 6.9 mph - N/A   Overcast
6:35 AM 42.8°F 35.6°F 76% 30.22 in 10.0 miles SE 6.9 mph - N/A   Overcast
6:55 AM 42.8°F 35.6°F 76% 30.22 in 10.0 miles SE 6.9 mph - N/A   Overcast
7:15 AM 42.8°F 35.6°F 76% 30.22 in 10.0 miles SSE 6.9 mph - N/A   Overcast
7:35 AM 42.8°F 35.6°F 76% 30.23 in 10.0 miles SE 6.9 mph - N/A   Overcast
7:55 AM 42.8°F 35.6°F 76% 30.23 in 10.0 miles SE 9.2 mph - N/A   Overcast
8:15 AM 42.8°F 35.6°F 76% 30.23 in 10.0 miles SE 9.2 mph - N/A   Overcast
8:35 AM 42.8°F 35.6°F 76% 30.23 in 10.0 miles SSE 6.9 mph 16.1 mph N/A   Overcast
9:15 AM 44.6°F 35.6°F 71% 30.23 in 10.0 miles SSE 10.4 mph - N/A   Overcast
9:35 AM 44.6°F 35.6°F 71% 30.23 in 10.0 miles SSE 11.5 mph - N/A   Overcast
9:55 AM 44.6°F 37.4°F 76% 30.23 in 10.0 miles SSE 10.4 mph 17.3 mph N/A   Overcast
10:15 AM 44.6°F 37.4°F 76% 30.23 in 10.0 miles SSE 11.5 mph 18.4 mph N/A   Overcast
10:35 AM 44.6°F 37.4°F 76% 30.23 in 10.0 miles SSE 9.2 mph 20.7 mph N/A   Overcast
10:55 AM 44.6°F 35.6°F 71% 30.23 in 10.0 miles SE 15.0 mph 20.7 mph N/A   Overcast
11:15 AM 44.6°F 37.4°F 76% 30.23 in 10.0 miles SE 13.8 mph - N/A   Overcast
11:35 AM 44.6°F 37.4°F 76% 30.22 in 10.0 miles SE 12.7 mph 20.7 mph N/A   Overcast
11:55 AM 44.6°F 37.4°F 76% 30.22 in 10.0 miles SSE 9.2 mph 18.4 mph 0.01 in   Overcast
12:15 PM 44.6°F 37.4°F 76% 30.22 in 10.0 miles SE 15.0 mph 20.7 mph N/A   Overcast
12:35 PM 44.6°F 37.4°F 76% 30.21 in 10.0 miles SE 13.8 mph 23.0 mph 0.02 in   Overcast
12:55 PM 44.6°F 37.4°F 76% 30.21 in 10.0 miles SE 9.2 mph 23.0 mph 0.04 in   Overcast
1:15 PM 44.6°F 37.4°F 76% 30.21 in 10.0 miles SE 10.4 mph 16.1 mph 0.04 in   Overcast
1:35 PM 44.6°F 37.4°F 76% 30.20 in 10.0 miles SE 10.4 mph 16.1 mph 0.07 in   Overcast
1:55 PM 44.6°F 37.4°F 76% 30.20 in 10.0 miles SE 11.5 mph 19.6 mph 0.09 in   Overcast
2:15 PM 44.6°F 39.2°F 81% 30.19 in 10.0 miles SE 10.4 mph 16.1 mph 0.03 in   Overcast
2:35 PM 44.6°F 39.2°F 81% 30.20 in 10.0 miles SE 11.5 mph 20.7 mph 0.04 in   Overcast
2:55 PM 46.4°F 39.2°F 76% 30.19 in 10.0 miles SE 12.7 mph 20.7 mph 0.06 in   Overcast
3:15 PM 46.4°F 39.2°F 76% 30.18 in 9.0 miles SE 10.4 mph 21.9 mph 0.01 in   Overcast
3:35 PM 46.4°F 39.2°F 76% 30.17 in 10.0 miles SE 13.8 mph 23.0 mph 0.02 in   Overcast
3:55 PM 46.4°F 39.2°F 76% 30.17 in 10.0 miles SE 15.0 mph 21.9 mph 0.03 in   Overcast
4:15 PM 46.4°F 39.2°F 76% 30.16 in 10.0 miles SE 11.5 mph 23.0 mph 0.01 in   Overcast
4:35 PM 46.4°F 39.2°F 76% 30.15 in 10.0 miles SE 15.0 mph 25.3 mph 0.02 in   Overcast
4:55 PM 46.4°F 39.2°F 76% 30.15 in 10.0 miles SSE 12.7 mph 25.3 mph 0.03 in   Overcast
5:15 PM 46.4°F 41.0°F 81% 30.15 in 10.0 miles SSE 12.7 mph 26.5 mph 0.02 in   Overcast
5:35 PM 46.4°F 41.0°F 81% 30.15 in 10.0 miles SSE 12.7 mph 24.2 mph 0.03 in   Overcast
5:55 PM 46.4°F 41.0°F 81% 30.15 in 10.0 miles SSE 12.7 mph 27.6 mph 0.05 in   Overcast
6:15 PM 46.4°F 41.0°F 81% 30.15 in 10.0 miles SSE 15.0 mph 21.9 mph 0.01 in   Overcast
6:35 PM 46.4°F 41.0°F 81% 30.15 in 10.0 miles SSE 12.7 mph 21.9 mph 0.03 in   Overcast
6:55 PM 46.4°F 41.0°F 81% 30.15 in 10.0 miles SSE 13.8 mph 20.7 mph 0.04 in   Overcast
7:15 PM 46.4°F 41.0°F 81% 30.15 in 10.0 miles SSE 16.1 mph 23.0 mph 0.02 in   Overcast
7:35 PM 46.4°F 41.0°F 81% 30.14 in 10.0 miles SE 15.0 mph 23.0 mph 0.05 in   Overcast
7:55 PM 46.4°F 41.0°F 81% 30.14 in 10.0 miles SE 18.4 mph 24.2 mph 0.08 in   Overcast
8:15 PM 46.4°F 41.0°F 81% 30.13 in 10.0 miles SE 15.0 mph 24.2 mph 0.01 in   Overcast
8:35 PM 48.2°F 41.0°F 76% 30.12 in 10.0 miles SE 19.6 mph 27.6 mph 0.02 in   Overcast
8:55 PM 48.2°F 42.8°F 82% 30.11 in 10.0 miles SSE 15.0 mph 32.2 mph 0.03 in   Overcast
9:15 PM 46.4°F 42.8°F 87% 30.13 in 10.0 miles SSE 15.0 mph 24.2 mph N/A   Overcast
9:35 PM 48.2°F 42.8°F 82% 30.13 in 10.0 miles SE 16.1 mph 21.9 mph N/A   Overcast
9:55 PM 48.2°F 42.8°F 82% 30.13 in 10.0 miles SSE 13.8 mph 20.7 mph N/A   Overcast
10:15 PM 48.2°F 42.8°F 82% 30.13 in 10.0 miles SSE 13.8 mph 20.7 mph 0.01 in   Overcast
10:55 PM 48.2°F 42.8°F 82% 30.12 in 10.0 miles SSE 15.0 mph 21.9 mph 0.01 in   Overcast
11:15 PM 48.2°F 42.8°F 82% 30.13 in 10.0 miles SSE 12.7 mph 21.9 mph N/A   Overcast
11:35 PM 48.2°F 42.8°F 82% 30.12 in 10.0 miles SE 10.4 mph 20.7 mph 0.01 in   Overcast
11:55 PM 48.2°F 42.8°F 82% 30.13 in 10.0 miles SSE 15.0 mph 25.3 mph 0.02 in   Overcast
Moon Phase
Nov. 11 Nov. 13 Nov. 20 Nov. 28 Dec. 06
Sunrise:07:07 AM (PST) Moon Rise:04:21 AM (PST)11/11
Sunset:04:43 PM (PST) Moon Set:03:15 PM (PST)11/11

Copyright © 2014 The Weather Underground, Inc.